EZY51HE EGPH-EGKK

Flight info

Callsign EZY51HE
Flight time N/A
Altitude 37000
Route GOSAM P600 FENIK L612 NAVSO DCT ADZOP DCT EGTOC DCT KEPAD L151 DISIT
Aircraft A21N/M-SDE2E3FGHIJ1RWXYZ/LB1G1

Departure

Time 2026-05-04 08:42
Airport Edinburgh Airport (EGPH)

Arrival

Time N/A
Airport London Gatwick Airport (EGKK)
Time Latitude Longitude Altitude Speed Heading
2026-05-04 08:21 55.94909 -3.36499 118 ft 0 kts 148°
2026-05-04 08:24 55.94881 -3.36548 122 ft 0 kts 148°
2026-05-04 08:35 55.94895 -3.36565 117 ft 4 kts 143°
2026-05-04 08:35 55.94915 -3.36596 117 ft 4 kts 128°
2026-05-04 08:35 55.94927 -3.36636 118 ft 4 kts 92°
2026-05-04 08:35 55.94924 -3.36661 117 ft 1 kts 59°
2026-05-04 08:38 55.94940 -3.36615 120 ft 5 kts 59°
2026-05-04 08:38 55.94966 -3.36539 120 ft 8 kts 59°
2026-05-04 08:40 55.95274 -3.35867 120 ft 16 kts 59°
2026-05-04 08:40 55.95335 -3.35688 120 ft 17 kts 59°
2026-05-04 08:40 55.95400 -3.35496 119 ft 17 kts 59°
2026-05-04 08:41 55.95452 -3.35403 119 ft 10 kts
2026-05-04 08:41 55.95518 -3.35462 117 ft 12 kts 326°
2026-05-04 08:41 55.95571 -3.35532 117 ft 7 kts 288°
2026-05-04 08:41 55.95551 -3.35627 116 ft 12 kts 239°
2026-05-04 08:42 55.95366 -3.36171 114 ft 97 kts 239°
2026-05-04 08:42 55.94879 -3.37621 153 ft 166 kts 239°
2026-05-04 08:42 55.94271 -3.39404 986 ft 173 kts 238°
2026-05-04 08:42 55.93571 -3.41403 1670 ft 206 kts 239°
2026-05-04 08:43 55.92759 -3.43749 2257 ft 235 kts 240°
2026-05-04 08:43 55.91879 -3.46300 3198 ft 246 kts 240°
2026-05-04 08:43 55.90979 -3.48917 4319 ft 250 kts 242°
2026-05-04 08:43 55.90312 -3.51781 5412 ft 252 kts 258°
2026-05-04 08:44 55.89988 -3.54850 6367 ft 254 kts 262°
2026-05-04 08:44 55.89697 -3.57981 7158 ft 259 kts 262°
2026-05-04 08:46 55.82382 -3.75626 11953 ft 338 kts 184°
2026-05-04 08:46 55.80012 -3.75728 12748 ft 342 kts 184°
2026-05-04 08:46 55.77616 -3.75872 13532 ft 347 kts 185°
2026-05-04 08:46 55.75189 -3.76067 14246 ft 351 kts 185°
2026-05-04 08:47 55.72734 -3.76289 14926 ft 355 kts 186°
2026-05-04 08:47 55.70256 -3.76529 15625 ft 358 kts 185°
2026-05-04 08:47 55.67757 -3.76778 16318 ft 362 kts 185°
2026-05-04 08:47 55.65233 -3.77035 17004 ft 365 kts 185°
2026-05-04 08:48 55.62677 -3.77297 17670 ft 369 kts 185°
2026-05-04 08:48 55.60131 -3.77555 18324 ft 374 kts 185°
2026-05-04 08:48 55.57517 -3.77821 18900 ft 378 kts 185°
2026-05-04 08:48 55.54877 -3.78093 19452 ft 382 kts 185°
2026-05-04 08:49 55.52213 -3.78363 19995 ft 386 kts 185°
2026-05-04 08:50 55.35624 -3.79995 23121 ft 409 kts 184°
2026-05-04 08:50 55.33732 -3.80187 23439 ft 412 kts 184°
2026-05-04 08:51 55.30855 -3.80480 23874 ft 416 kts 184°
2026-05-04 08:51 55.27956 -3.80768 24276 ft 419 kts 184°
2026-05-04 08:51 55.25037 -3.81048 24656 ft 422 kts 183°
2026-05-04 08:51 55.22096 -3.80928 25018 ft 425 kts 173°
2026-05-04 08:52 55.19200 -3.79797 25387 ft 428 kts 162°
2026-05-04 08:52 55.16356 -3.78221 25782 ft 430 kts 161°
2026-05-04 08:52 55.13510 -3.76592 26155 ft 432 kts 161°
2026-05-04 08:52 55.10635 -3.74967 26521 ft 435 kts 161°
2026-05-04 08:53 55.07744 -3.73359 26861 ft 438 kts 161°